Time,TemperatureF,DewpointF,PressureIn,WindDirection,WindDirectionDegrees,WindSpeedMPH,WindSpeedGustMPH,Humidity,HourlyPrecipIn,Conditions,Clouds,dailyrainin,SoftwareType,DateUTC
2013-07-16 00:00:00,45.0,-99.9,-100.00,North,-999,-999.0,-999.0,-999,-99.99,,,-99.99,,2013-07-16 06:00:00,
2013-07-16 01:00:00,45.0,-99.9,-100.00,North,-999,-999.0,-999.0,-999,-99.99,,,-99.99,,2013-07-16 07:00:00,
2013-07-16 02:00:00,45.0,-99.9,-100.00,North,-999,-999.0,-999.0,-999,-99.99,,,-99.99,,2013-07-16 08:00:00,
2013-07-16 02:52:00,45.0,-99.9,-100.00,North,-999,-999.0,-999.0,-999,-99.99,,,-99.99,,2013-07-16 08:52:00,
2013-07-16 03:00:00,43.0,-99.9,-100.00,North,-999,-999.0,-999.0,-999,-99.99,,,0.02,,2013-07-16 09:00:00,
2013-07-16 04:00:00,42.0,-99.9,-100.00,North,-999,-999.0,-999.0,-999,-99.99,,,-99.99,,2013-07-16 10:00:00,
2013-07-16 04:52:00,42.0,-99.9,-100.00,North,-999,-999.0,-999.0,-999,-99.99,,,-99.99,,2013-07-16 10:52:00,
2013-07-16 05:00:00,42.0,-99.9,-100.00,North,-999,-999.0,-999.0,-999,-99.99,,,0.02,,2013-07-16 11:00:00,
2013-07-16 06:00:00,41.0,-99.9,-100.00,North,-999,-999.0,-999.0,-999,-99.99,,,0.02,,2013-07-16 12:00:00,
2013-07-16 07:00:00,42.0,-99.9,-100.00,North,-999,-999.0,-999.0,-999,-99.99,,,0.02,,2013-07-16 13:00:00,
2013-07-16 08:00:00,44.0,-99.9,-100.00,North,-999,-999.0,-999.0,-999,-99.99,,,0.02,,2013-07-16 14:00:00,
2013-07-16 09:00:00,47.0,-99.9,-100.00,North,-999,-999.0,-999.0,-999,-99.99,,,0.02,,2013-07-16 15:00:00,
2013-07-16 10:00:00,50.0,-99.9,-100.00,North,-999,-999.0,-999.0,-999,-99.99,,,0.02,,2013-07-16 16:00:00,
2013-07-16 11:00:00,56.0,-99.9,-100.00,North,-999,-999.0,-999.0,-999,-99.99,,,0.02,,2013-07-16 17:00:00,
2013-07-16 12:00:00,54.0,-99.9,-100.00,North,-999,-999.0,-999.0,-999,-99.99,,,0.02,,2013-07-16 18:00:00,
2013-07-16 13:00:00,54.0,-99.9,-100.00,North,-999,-999.0,-999.0,-999,-99.99,,,0.02,,2013-07-16 19:00:00,
2013-07-16 14:00:00,59.0,-99.9,-100.00,North,-999,-999.0,-999.0,-999,-99.99,,,-99.99,,2013-07-16 20:00:00,
2013-07-16 16:00:00,60.0,-99.9,-100.00,North,-999,-999.0,-999.0,-999,-99.99,,,-99.99,,2013-07-16 22:00:00,
2013-07-16 17:00:00,56.0,-99.9,-100.00,North,-999,-999.0,-999.0,-999,-99.99,,,0.01,,2013-07-16 23:00:00,
2013-07-16 19:00:00,51.0,-99.9,-100.00,North,-999,-999.0,-999.0,-999,-99.99,,,1.13,,2013-07-17 01:00:00,
2013-07-16 19:43:00,51.0,-99.9,-100.00,North,-999,-999.0,-999.0,-999,-99.99,,,1.13,,2013-07-17 01:43:00,
2013-07-16 19:53:00,51.0,-99.9,-100.00,North,-999,-999.0,-999.0,-999,-99.99,,,1.13,,2013-07-17 01:53:00,
2013-07-16 22:00:00,48.0,-99.9,-100.00,North,-999,-999.0,-999.0,-999,-99.99,,,-99.99,,2013-07-17 04:00:00,
2013-07-16 23:00:00,46.0,-99.9,-100.00,North,-999,-999.0,-999.0,-999,-99.99,,,1.12,,2013-07-17 05:00:00,
2013-07-16 23:52:00,46.0,-99.9,-100.00,North,-999,-999.0,-999.0,-999,-99.99,,,1.12,,2013-07-17 05:52:00,